Retour au catalogue

STARLINK-32956

ActifCommunicationsVLEO
NORAD 63570·PAYLOAD·🇺🇸 United States

Lancé Apr 14, 2025 depuis Cape Canaveral Space Force Station

Loading…

Prochains Passages (prochaines 24 heures)

TLE

FraisSource: CelesTrak SupGP

Époque: Sep 15, 2026, 03:06 UTC

1 63570C 25076B   26258.12965278  .00044402  00000+0  16079-2 0  2580
2 63570  43.0018 335.0536 0001699 264.5222 195.7305 15.27563721    12

Suivez STARLINK-32956 en temps réel avec AllMySat

Download on the App Store